GW3294 Weather Reports


Display with metric or nautical units.
time (UTC)temp
F
wind
direction
speed
MPH
gust
MPH
rain 1hr
in
rain 24hr
in
rain mn
in
humidity
%
barometer
mb
20260506152820 51 122 1.0 3.0 0.00 0.05 0.05 93 1018.5
20260506152318 51 103 0.0 2.0 0.00 0.05 0.05 94 1018.4
20260506151817 50 93 0.0 4.0 0.00 0.05 0.05 94 1018.5
20260506151312 50 88 0.0 2.0 0.00 0.05 0.05 95 1018.4
20260506150809 50 32 0.0 3.0 0.00 0.05 0.05 96 1018.4
20260506150307 50 64 0.0 3.0 0.00 0.05 0.05 97 1018.7
20260506145803 50 186 0.0 3.0 0.00 0.05 0.05 98 1018.4
20260506145300 49 127 2.0 3.0 0.00 0.05 0.05 98 1018.3
20260506144757 49 224 0.0 2.0 0.00 0.05 0.05 99 1018.5
20260506144254 49 269 0.0 2.0 0.00 0.05 0.05 99 1018.3
20260506143752 50 158 3.0 4.0 0.00 0.05 0.05 99 1018.1
20260506143249 49 129 0.0 6.0 0.00 0.05 0.05 99 1018.2
20260506142747 49 125 1.0 7.0 0.00 0.05 0.05 99 1018.0
20260506142245 49 237 0.0 4.0 0.00 0.05 0.05 99 1018.4
20260506141743 48 125 3.0 7.0 0.00 0.05 0.05 99 1018.3
20260506141241 48 107 0.0 5.0 0.00 0.05 0.05 99 1018.2
20260506140738 48 201 0.0 2.0 0.00 0.05 0.05 99 1018.6
20260506140235 48 71 2.0 3.0 0.00 0.05 0.05 99 1018.5
20260506135732 48 89 0.0 4.0 0.00 0.05 0.05 99 1018.5
20260506135228 48 120 0.0 4.0 0.00 0.05 0.05 99 1018.4
20260506134725 48 174 0.0 5.0 0.00 0.05 0.05 99 1018.4
20260506134221 48 110 1.0 2.0 0.00 0.05 0.05 99 1018.4
20260506133719 48 148 0.0 3.0 0.00 0.05 0.05 99 1018.3
20260506133215 48 97 1.0 2.0 0.00 0.05 0.05 99 1018.3
20260506132712 48 113 2.0 3.0 0.00 0.05 0.05 99 1018.4
20260506132209 48 128 0.0 5.0 0.00 0.05 0.05 99 1018.4
20260506131707 47 118 2.0 4.0 0.00 0.05 0.05 99 1018.1
20260506131203 48 124 0.0 2.0 0.00 0.05 0.05 99 1018.1
20260506130700 48 38 2.0 4.0 0.00 0.05 0.05 99 1018.2
20260506130157 48 122 2.0 3.0 0.00 0.05 0.05 99 1018.0
20260506125655 48 89 0.0 2.0 0.00 0.05 0.05 99 1017.9
20260506125153 47 98 0.0 1.0 0.00 0.05 0.05 99 1017.9
20260506124650 47 119 0.0 2.0 0.00 0.05 0.05 99 1017.7
20260506124148 47 75 1.0 3.0 0.00 0.05 0.05 99 1017.7
20260506123645 47 32 0.0 1.0 0.00 0.05 0.05 99 1017.8
20260506123144 46 57 1.0 2.0 0.00 0.05 0.05 99 1017.7
20260506122640 46 121 1.0 2.0 0.00 0.05 0.05 99 1017.9
20260506122138 46 76 0.0 2.0 0.00 0.05 0.05 99 1017.6
20260506121635 46 111 0.0 2.0 0.00 0.05 0.05 99 1017.6
20260506121131 46 99 0.0 3.0 0.00 0.05 0.05 99 1017.5
20260506120630 46 55 0.0 3.0 0.00 0.05 0.05 99 1017.3
20260506120127 46 118 2.0 3.0 0.00 0.05 0.05 99 1017.3
20260506115625 46 31 1.0 2.0 0.00 0.05 0.05 99 1017.4
20260506115123 46 112 2.0 2.0 0.00 0.05 0.05 99 1017.5
20260506114620 46 66 0.0 3.0 0.00 0.05 0.05 99 1017.2
20260506114118 46 55 1.0 2.0 0.00 0.05 0.05 99 1017.8
20260506113616 46 122 1.0 2.0 0.00 0.05 0.05 99 1017.9
20260506113113 46 135 0.0 3.0 0.00 0.05 0.05 99 1017.3
20260506112609 46 310 0.0 2.0 0.00 0.05 0.05 99 1017.6
20260506112107 46 76 0.0 2.0 0.00 0.05 0.05 99 1017.3
20260506111605 46 48 1.0 3.0 0.00 0.05 0.05 99 1016.8
20260506111102 46 35 0.0 3.0 0.00 0.05 0.05 99 1017.0
20260506110559 46 89 0.0 1.0 0.00 0.05 0.05 99 1016.9
20260506110056 46 132 2.0 3.0 0.00 0.05 0.05 99 1016.3
20260506105553 46 32 0.0 2.0 0.00 0.05 0.05 99 1016.3
20260506105050 46 89 0.0 2.0 0.00 0.05 0.05 99 1016.2
20260506104548 46 94 0.0 2.0 0.00 0.05 0.05 99 1016.1
20260506104045 46 98 0.0 2.0 0.00 0.05 0.05 99 1015.5
20260506103542 46 44 1.0 2.0 0.00 0.05 0.05 99 1015.6
20260506103039 46 122 0.0 2.0 0.00 0.05 0.05 99 1015.6
20260506102538 46 104 2.0 3.0 0.00 0.05 0.05 99 1015.6
20260506102035 46 105 1.0 3.0 0.00 0.05 0.05 99 1015.6
20260506101531 46 147 0.0 2.0 0.00 0.05 0.05 99 1015.8
20260506101028 46 43 0.0 2.0 0.00 0.05 0.05 99 1015.7
20260506100527 46 119 0.0 2.0 0.00 0.05 0.05 99 1015.6
20260506100024 46 96 2.0 3.0 0.00 0.05 0.05 99 1015.6
20260506095523 46 135 0.0 3.0 0.00 0.05 0.05 99 1015.7
20260506095019 46 95 0.0 3.0 0.00 0.05 0.05 99 1015.6
20260506094517 46 116 2.0 2.0 0.00 0.05 0.05 99 1015.7
20260506094014 46 116 0.0 2.0 0.00 0.05 0.05 99 1015.5
20260506093512 46 49 0.0 2.0 0.00 0.05 0.05 99 1015.6
20260506093010 46 71 0.0 2.0 0.00 0.05 0.05 99 1015.5
20260506092508 46 65 0.0 2.0 0.00 0.05 0.05 99 1015.6
20260506092004 46 117 1.0 2.0 0.00 0.05 0.05 99 1015.8
20260506091503 46 91 2.0 3.0 0.00 0.05 0.05 99 1015.6
20260506090959 46 118 0.0 2.0 0.00 0.05 0.05 99 1015.9
20260506090457 46 124 0.0 2.0 0.00 0.05 0.05 99 1016.1
20260506085953 46 65 0.0 2.0 0.00 0.05 0.05 99 1016.3
20260506085450 46 49 0.0 2.0 0.00 0.05 0.05 99 1016.5
20260506084946 46 124 0.0 2.0 0.00 0.05 0.05 99 1015.8
20260506084443 46 108 0.0 3.0 0.00 0.05 0.05 99 1015.8
20260506083939 45 157 0.0 1.0 0.00 0.05 0.05 99 1015.6
20260506083437 46 127 1.0 3.0 0.00 0.05 0.05 99 1015.7
20260506082934 46 183 0.0 2.0 0.00 0.05 0.05 99 1015.8
20260506082431 46 89 0.0 2.0 0.00 0.05 0.05 99 1015.7
20260506081926 46 60 0.0 3.0 0.00 0.05 0.05 99 1015.5
20260506081425 46 95 0.0 3.0 0.00 0.05 0.05 99 1016.0
20260506080922 46 60 1.0 3.0 0.02 0.05 0.05 99 1015.5
20260506080419 46 119 0.0 1.0 0.02 0.05 0.05 99 1015.5
20260506073403 46 102 1.0 2.0 0.00 0.05 0.05 99 1015.0
20260506072900 46 106 0.0 2.0 0.00 0.05 0.05 99 1015.0
20260506072357 46 116 2.0 4.0 0.00 0.05 0.05 99 1015.0
20260506071854 46 100 1.0 2.0 0.00 0.05 0.05 99 1015.5
20260506071353 46 79 1.0 2.0 0.02 0.05 0.05 99 1015.5
20260506070849 46 101 0.0 2.0 0.02 0.05 0.05 99 1015.8
20260506070346 46 103 0.0 1.0 0.00 0.04 0.04 99 1015.9
20260506062323 46 157 0.0 2.0 0.02 0.03 0.03 99 1015.2
20260506061819 46 66 0.0 2.0 0.05 0.03 0.03 99 1015.1
20260506061316 46 32 0.0 1.0 0.05 0.02 0.02 99 1015.2
20260506060815 46 61 0.0 1.0 0.02 0.02 0.02 99 1015.2
20260506060312 46 124 0.0 1.0 0.02 0.02 0.02 99 1015.5
20260506051244 46 129 2.0 3.0 0.02 0.00 0.00 99 1015.2
20260506050742 46 71 1.0 2.0 0.02 0.00 0.00 99 1015.1
20260506050239 46 106 0.0 2.0 0.00 0.00 0.00 99 1015.0
20260506044730 46 89 1.0 2.0 0.02 0.58 0.58 99 1014.7
20260506044227 46 68 0.0 1.0 0.00 0.57 0.57 99 1014.8
20260506043724 46 103 0.0 2.0 0.02 0.57 0.57 99 1014.6
20260506043222 46 118 0.0 3.0 0.02 0.57 0.57 99 1014.8
20260506042720 46 54 2.0 3.0 0.00 0.57 0.57 99 1014.8
20260506042218 46 99 2.0 2.0 0.00 0.57 0.57 99 1015.2
20260506041716 46 124 0.0 1.0 0.00 0.57 0.57 99 1015.2
20260506041213 46 104 2.0 3.0 0.00 0.57 0.57 99 1015.2
20260506040711 46 89 1.0 2.0 0.00 0.57 0.57 99 1015.1
20260506040207 46 114 2.0 3.0 0.00 0.57 0.57 99 1015.0
20260506035704 46 129 0.0 3.0 0.00 0.57 0.57 99 1015.4
20260506035201 45 62 1.0 3.0 0.02 0.57 0.57 99 1015.2
20260506034658 46 112 2.0 3.0 0.00 0.57 0.57 99 1015.6
20260506034155 45 118 1.0 2.0 0.00 0.57 0.57 99 1015.5
20260506033652 45 108 1.0 2.0 0.00 0.57 0.57 99 1015.6
20260506033149 45 84 1.0 2.0 0.00 0.57 0.57 99 1015.7
20260506032646 45 113 0.0 2.0 0.00 0.57 0.57 99 1015.4
20260506032143 45 129 0.0 1.0 0.00 0.57 0.57 99 1015.0
20260506031640 45 80 0.0 2.0 0.00 0.57 0.57 99 1014.9
20260506031136 45 92 1.0 3.0 0.00 0.57 0.57 99 1014.7
20260506030635 45 132 0.0 1.0 0.00 0.57 0.57 99 1014.8
20260506030127 45 104 1.0 2.0 0.00 0.57 0.57 99 1014.6
20260506025623 45 94 0.0 2.0 0.00 0.57 0.57 99 1014.5
20260506025119 46 111 0.0 2.0 0.00 0.57 0.57 99 1014.2
20260506024617 45 104 1.0 2.0 0.00 0.57 0.57 99 1014.2
20260506024113 45 125 0.0 2.0 0.00 0.57 0.57 99 1014.4
20260506023610 45 107 2.0 3.0 0.00 0.57 0.57 99 1014.3
20260506023107 45 118 0.0 2.0 0.00 0.57 0.57 99 1014.8
20260506022604 45 135 0.0 2.0 0.00 0.57 0.57 99 1014.7
20260506022102 45 122 2.0 2.0 0.00 0.57 0.57 99 1014.3
20260506021559 45 122 2.0 2.0 0.02 0.57 0.57 99 1014.5
20260506021056 45 103 0.0 2.0 0.05 0.57 0.57 99 1014.5
20260506020553 45 94 1.0 1.0 0.09 0.56 0.56 99 1014.6
20260506020051 45 98 2.0 2.0 0.09 0.56 0.56 99 1014.6
20260506015548 45 119 0.0 4.0 0.09 0.55 0.55 99 1014.4
20260506015045 45 100 0.0 3.0 0.07 0.54 0.54 99 1014.5
20260506014543 45 142 0.0 3.0 0.05 0.53 0.53 99 1014.6
20260506014038 45 69 1.0 2.0 0.07 0.53 0.53 99 1014.4
20260506013536 45 106 0.0 2.0 0.07 0.52 0.52 99 1014.6
20260506013033 45 124 0.0 2.0 0.09 0.52 0.52 98 1013.7
20260506012529 45 98 4.0 4.0 0.12 0.51 0.51 98 1014.6
20260506012026 45 100 2.0 2.0 0.07 0.50 0.50 98 1014.4
20260506011524 45 145 3.0 3.0 0.02 0.48 0.48 98 1014.0
20260506011019 45 80 0.0 3.0 0.05 0.48 0.48 98 1013.6
20260506010513 45 113 2.0 4.0 0.05 0.48 0.48 98 1013.6
20260506010009 45 132 0.0 2.0 0.12 0.48 0.48 98 1013.8
20260506005507 45 111 1.0 3.0 0.19 0.47 0.47 98 1013.6
20260506005002 46 158 0.0 4.0 0.26 0.46 0.46 98 1013.7
20260506004500 46 150 1.0 5.0 0.19 0.43 0.43 98 1013.7
20260506003955 46 153 2.0 3.0 0.05 0.41 0.41 98 1014.0
20260506003452 46 142 2.0 3.0 0.02 0.40 0.40 98 1013.5
20260506002948 46 77 0.0 5.0 0.00 0.40 0.40 98 1013.5
20260506002445 46 121 0.0 4.0 0.02 0.40 0.40 98 1013.5
20260506001940 46 191 0.0 3.0 0.02 0.40 0.40 98 1013.5
20260506001438 46 225 0.0 3.0 0.00 0.39 0.39 98 1013.2
20260506000935 46 154 0.0 3.0 0.02 0.39 0.39 98 1013.1
20260506000432 46 147 2.0 3.0 0.02 0.39 0.39 98 1013.4
20260505235929 47 111 2.0 4.0 0.05 0.39 0.39 98 1013.0
20260505235427 47 135 0.0 3.0 0.05 0.39 0.39 97 1013.3
20260505234924 46 89 0.0 4.0 0.05 0.38 0.38 97 1012.9
20260505234421 47 231 1.0 3.0 0.07 0.38 0.38 97 1013.0
20260505233918 47 145 2.0 5.0 0.07 0.37 0.37 97 1012.8
20260505233416 47 126 2.0 3.0 0.07 0.37 0.37 97 1012.7
20260505232913 47 125 3.0 4.0 0.26 0.36 0.36 97 1012.4
20260505232411 47 113 3.0 5.0 0.35 0.35 0.35 96 1013.1
20260505231907 47 123 4.0 5.0 0.19 0.32 0.32 96 1012.9
20260505231405 47 138 1.0 10.0 0.02 0.29 0.29 96 1013.0
20260505230903 48 78 0.0 5.0 0.00 0.28 0.28 96 1012.3
20260505230400 48 113 3.0 3.0 0.00 0.28 0.28 95 1012.5
20260505225856 48 160 0.0 3.0 0.00 0.28 0.28 95 1012.5
20260505225354 48 123 2.0 3.0 0.00 0.28 0.28 95 1012.5
20260505224849 48 155 0.0 1.0 0.02 0.28 0.28 95 1012.5
20260505224347 48 117 1.0 1.0 0.07 0.28 0.28 95 1012.4
20260505223843 48 67 1.0 7.0 0.09 0.28 0.28 94 1012.1
20260505223340 48 112 2.0 4.0 0.07 0.27 0.27 94 1012.1
20260505222836 49 157 0.0 3.0 0.00 0.26 0.26 93 1011.9
20260505222333 49 128 2.0 2.0 0.00 0.26 0.26 93 1012.2
20260505221830 49 92 2.0 3.0 0.00 0.26 0.26 93 1012.2
20260505221326 49 157 0.0 2.0 0.00 0.26 0.26 94 1012.6
20260505220823 48 107 0.0 4.0 0.00 0.26 0.26 94 1012.2
20260505220320 48 108 2.0 3.0 0.00 0.26 0.26 93 1012.1
20260505215818 49 111 2.0 3.0 0.00 0.26 0.26 94 1012.2
20260505215316 49 83 0.0 3.0 0.00 0.26 0.26 94 1012.2
20260505214814 49 71 2.0 3.0 0.00 0.26 0.26 93 1012.2
20260505214311 49 110 1.0 2.0 0.00 0.26 0.26 94 1012.4
20260505213808 49 65 2.0 3.0 0.00 0.26 0.26 94 1012.5
20260505213306 48 195 0.0 2.0 0.00 0.26 0.26 94 1012.6
20260505212801 48 89 1.0 7.0 0.00 0.26 0.26 94 1012.4
20260505212259 49 177 0.0 3.0 0.00 0.26 0.26 94 1012.3
20260505211755 49 85 2.0 4.0 0.00 0.26 0.26 94 1011.9
20260505211253 48 72 2.0 6.0 0.00 0.26 0.26 93 1012.6
20260505210749 48 99 3.0 3.0 0.05 0.26 0.26 93 1012.7
20260505210246 48 124 2.0 4.0 0.05 0.26 0.26 92 1013.0
20260505205743 48 113 2.0 2.0 0.00 0.25 0.25 92 1013.0
20260505205242 49 151 2.0 6.0 0.00 0.25 0.25 92 1012.9
20260505204738 49 121 1.0 4.0 0.02 0.25 0.25 91 1013.1
20260505204236 49 82 2.0 4.0 0.02 0.25 0.25 90 1013.2
20260505203733 49 191 0.0 4.0 0.00 0.24 0.24 90 1013.0
20260505203229 49 147 0.0 5.0 0.00 0.24 0.24 89 1013.0
20260505202725 49 131 0.0 5.0 0.00 0.24 0.24 90 1013.0
20260505202221 49 93 3.0 5.0 0.00 0.24 0.24 90 1013.0
20260505201718 49 140 1.0 4.0 0.00 0.24 0.24 89 1013.0
20260505201216 49 126 0.0 4.0 0.00 0.24 0.24 91 1012.5
20260505200714 49 114 3.0 6.0 0.00 0.24 0.24 90 1013.2
20260505200211 49 110 3.0 5.0 0.00 0.24 0.24 88 1013.4
20260505195706 50 288 0.0 3.0 0.00 0.24 0.24 89 1013.4
20260505195204 49 98 2.0 8.0 0.00 0.24 0.24 88 1013.1
20260505194701 49 100 3.0 4.0 0.00 0.24 0.24 88 1013.2
20260505194157 49 138 1.0 9.0 0.00 0.24 0.24 87 1013.3
20260505193653 50 112 4.0 8.0 0.00 0.24 0.24 87 1013.6
20260505193151 50 125 5.0 5.0 0.00 0.24 0.24 86 1013.3
20260505192649 50 52 1.0 5.0 0.00 0.24 0.24 85 1013.4
20260505192146 50 119 1.0 5.0 0.00 0.24 0.24 85 1013.3
20260505191644 50 120 3.0 5.0 0.00 0.24 0.24 85 1013.2
20260505191143 50 110 3.0 6.0 0.00 0.24 0.24 84 1012.8
20260505190638 51 173 1.0 8.0 0.00 0.24 0.24 85 1012.9
20260505190138 51 168 3.0 6.0 0.00 0.24 0.24 85 1012.9
20260505185635 52 24 2.0 6.0 0.00 0.24 0.24 87 1012.8
20260505185132 52 159 4.0 5.0 0.00 0.24 0.24 85 1012.8
20260505184628 52 104 2.0 6.0 0.00 0.24 0.24 88 1012.7
20260505184125 52 137 1.0 5.0 0.00 0.24 0.24 88 1012.7
20260505183622 52 116 0.0 3.0 0.00 0.24 0.24 89 1012.9
20260505183120 53 109 3.0 4.0 0.00 0.24 0.24 89 1013.3
20260505182616 52 190 0.0 2.0 0.00 0.24 0.24 89 1013.2
20260505182113 52 148 3.0 4.0 0.00 0.24 0.24 90 1012.7
20260505181609 52 91 0.0 6.0 0.00 0.24 0.24 88 1012.9
20260505181107 52 133 0.0 2.0 0.00 0.24 0.24 88 1013.4
20260505180602 52 124 2.0 4.0 0.00 0.24 0.24 89 1013.5
20260505180100 53 114 2.0 3.0 0.00 0.24 0.24 87 1013.6
20260505175555 52 108 2.0 8.0 0.00 0.24 0.24 86 1013.5
20260505175052 52 123 1.0 5.0 0.00 0.24 0.24 89 1013.4
20260505174550 53 113 0.0 9.0 0.00 0.24 0.24 88 1013.4
20260505174045 53 146 3.0 7.0 0.00 0.24 0.24 88 1013.5
20260505173537 54 135 0.0 3.0 0.00 0.24 0.24 89 1013.5
20260505173033 55 119 0.0 2.0 0.00 0.24 0.24 89 1013.3
20260505172531 55 135 1.0 2.0 0.00 0.24 0.24 89 1013.1
20260505172027 55 116 0.0 3.0 0.00 0.24 0.24 88 1013.3
20260505171522 54 114 0.0 2.0 0.00 0.24 0.24 89 1013.2
20260505171020 54 220 0.0 2.0 0.00 0.24 0.24 90 1013.6
20260505170516 54 236 1.0 2.0 0.00 0.24 0.24 90 1013.0
20260505170013 54 57 0.0 1.0 0.02 0.24 0.24 88 1013.0
20260505165508 55 256 0.0 2.0 0.02 0.24 0.24 86 1012.9
20260505165004 55 111 1.0 2.0 0.00 0.24 0.24 85 1012.7
20260505164500 56 147 2.0 2.0 0.00 0.24 0.24 85 1012.4
20260505163958 56 272 1.0 4.0 0.00 0.24 0.24 79 1012.4
20260505163457 57 100 1.0 2.0 0.00 0.24 0.24 78 1012.7
20260505162956 57 65 2.0 2.0 0.00 0.24 0.24 81 1012.6
20260505162451 57 70 0.0 2.0 0.00 0.24 0.24 77 1012.7
20260505161948 57 56 1.0 3.0 0.00 0.24 0.24 79 1012.6
20260505161445 56 118 2.0 3.0 0.00 0.24 0.24 82 1012.4
20260505160942 56 216 2.0 3.0 0.00 0.24 0.24 78 1012.7
20260505160440 56 104 3.0 4.0 0.00 0.24 0.24 79 1012.8